FW6341 Weather Reports


Display with metric or nautical units.
time (UTC)temp
F
wind
direction
speed
MPH
gust
MPH
rain 1hr
in
rain 24hr
in
rain mn
in
humidity
%
barometer
mb
20260505223814 62 136 0.0 0.0 0.00 0.00 0.00 75 1016.8
20260505223311 63 91 1.0 1.0 0.00 0.00 0.00 75 1016.8
20260505222807 63 108 0.0 0.0 0.00 0.00 0.00 75 1016.7
20260505222305 63 113 0.0 0.0 0.00 0.00 0.00 75 1016.8
20260505221800 62 112 0.0 0.0 0.00 0.00 0.00 75 1016.9
20260505221257 62 104 0.0 0.0 0.00 0.00 0.00 75 1017.0
20260505220754 62 88 0.0 1.0 0.00 0.00 0.00 75 1017.0
20260505220251 62 151 0.0 1.0 0.00 0.00 0.00 75 1016.8
20260505215749 62 19 1.0 2.0 0.00 0.00 0.00 75 1016.9
20260505215247 63 149 1.0 1.0 0.00 0.00 0.00 75 1017.1
20260505214744 63 145 0.0 0.0 0.00 0.00 0.00 74 1016.9
20260505214242 63 136 0.0 0.0 0.00 0.00 0.00 75 1017.0
20260505213739 62 112 0.0 1.0 0.00 0.00 0.00 75 1017.1
20260505213236 62 140 0.0 0.0 0.00 0.00 0.00 75 1017.1
20260505212732 62 145 0.0 0.0 0.00 0.00 0.00 75 1017.0
20260505212229 63 154 1.0 1.0 0.00 0.00 0.00 75 1017.2
20260505211726 63 148 1.0 1.0 0.00 0.00 0.00 74 1017.1
20260505211224 63 104 0.0 1.0 0.00 0.00 0.00 73 1017.1
20260505210720 64 159 0.0 1.0 0.00 0.00 0.00 73 1017.3
20260505210217 64 110 0.0 0.0 0.00 0.00 0.00 74 1017.3
20260505205714 64 123 0.0 0.0 0.00 0.00 0.00 72 1017.4
20260505205212 64 149 1.0 1.0 0.00 0.00 0.00 73 1017.4
20260505204708 65 103 0.0 0.0 0.00 0.00 0.00 71 1017.2
20260505204207 65 126 0.0 0.0 0.00 0.00 0.00 73 1017.5
20260505203704 64 107 0.0 1.0 0.00 0.00 0.00 72 1017.5
20260505203200 63 133 0.0 0.0 0.00 0.00 0.00 74 1017.7
20260505202656 61 101 0.0 1.0 0.00 0.00 0.00 78 1017.7
20260505202152 61 95 0.0 0.0 0.00 0.00 0.00 78 1017.6
20260505201648 61 170 1.0 1.0 0.00 0.00 0.00 78 1017.5
20260505201147 61 119 0.0 0.0 0.00 0.00 0.00 79 1017.5
20260505200645 61 122 0.0 1.0 0.00 0.00 0.00 79 1017.5
20260505200141 61 3 1.0 1.0 0.00 0.00 0.00 78 1017.7
20260505195637 61 98 0.0 0.0 0.00 0.00 0.00 79 1017.6
20260505195135 61 299 0.0 1.0 0.00 0.00 0.00 78 1017.7
20260505194632 61 148 0.0 0.0 0.00 0.00 0.00 78 1017.6
20260505194128 61 344 1.0 1.0 0.00 0.00 0.00 79 1017.9
20260505193624 60 119 0.0 0.0 0.00 0.00 0.00 79 1017.9
20260505193121 60 156 0.0 1.0 0.00 0.00 0.00 79 1017.8
20260505192620 60 139 0.0 0.0 0.00 0.00 0.00 79 1018.0
20260505192117 60 138 0.0 1.0 0.00 0.00 0.00 79 1018.0
20260505191616 60 98 0.0 0.0 0.00 0.00 0.00 81 1018.0
20260505191113 59 106 0.0 0.0 0.00 0.00 0.00 81 1018.0
20260505190608 59 145 0.0 0.0 0.00 0.00 0.00 82 1017.8
20260505190104 59 116 0.0 0.0 0.00 0.00 0.00 82 1017.6
20260505185601 59 127 0.0 1.0 0.00 0.00 0.00 83 1017.9
20260505185057 59 317 1.0 1.0 0.00 0.00 0.00 82 1017.8
20260505184554 58 147 0.0 0.0 0.00 0.00 0.00 83 1017.8
20260505184051 58 138 0.0 0.0 0.00 0.00 0.00 84 1017.8
20260505183547 58 133 0.0 0.0 0.00 0.00 0.00 84 1017.9
20260505183045 57 109 0.0 0.0 0.00 0.00 0.00 85 1017.7
20260505182541 58 110 1.0 1.0 0.00 0.00 0.00 84 1018.0
20260505182038 58 143 0.0 0.0 0.00 0.00 0.00 84 1017.8
20260505181535 58 106 0.0 0.0 0.00 0.00 0.00 84 1017.7
20260505181032 58 135 0.0 0.0 0.00 0.00 0.00 84 1017.7
20260505180527 58 143 0.0 0.0 0.00 0.00 0.00 85 1017.6
20260505180026 57 135 0.0 0.0 0.00 0.00 0.00 84 1017.8
20260505175520 57 134 0.0 0.0 0.00 0.00 0.00 84 1017.6
20260505175018 57 134 0.0 0.0 0.00 0.00 0.00 84 1017.5
20260505174515 57 110 0.0 1.0 0.00 0.00 0.00 83 1017.6
20260505174010 57 134 0.0 0.0 0.00 0.00 0.00 84 1017.7
20260505173507 57 133 0.0 0.0 0.00 0.00 0.00 83 1017.5
20260505173004 58 133 0.0 1.0 0.00 0.00 0.00 83 1017.6
20260505172502 58 121 0.0 0.0 0.00 0.00 0.00 84 1017.3
20260505171957 57 142 0.0 0.0 0.00 0.00 0.00 85 1017.3
20260505171453 57 164 1.0 1.0 0.00 0.00 0.00 84 1017.3
20260505170950 57 139 0.0 0.0 0.00 0.00 0.00 85 1017.5
20260505170447 57 146 0.0 0.0 0.00 0.00 0.00 85 1017.4
20260505165942 57 134 0.0 0.0 0.00 0.00 0.00 87 1017.3
20260505165438 56 65 1.0 1.0 0.00 0.00 0.00 86 1017.1
20260505164934 56 134 0.0 0.0 0.00 0.00 0.00 86 1017.1
20260505164431 56 123 0.0 0.0 0.00 0.00 0.00 87 1017.2
20260505163928 56 99 1.0 1.0 0.00 0.00 0.00 86 1016.9
20260505163427 56 149 0.0 1.0 0.00 0.00 0.00 86 1017.2
20260505162926 56 149 0.0 0.0 0.00 0.00 0.00 87 1017.1
20260505162421 56 125 0.0 0.0 0.00 0.00 0.00 87 1017.0
20260505161918 56 132 1.0 1.0 0.00 0.00 0.00 87 1016.9
20260505161415 56 109 0.0 0.0 0.00 0.00 0.00 88 1017.0
20260505160913 56 117 0.0 0.0 0.00 0.00 0.00 89 1016.9
20260505160410 56 107 0.0 0.0 0.00 0.00 0.00 89 1017.0
20260505153349 55 114 0.0 0.0 0.00 0.00 0.00 91 1017.0
20260505152846 55 132 0.0 0.0 0.00 0.00 0.00 91 1017.1
20260505152343 55 142 0.0 1.0 0.00 0.00 0.00 91 1017.0
20260505151837 54 139 0.0 0.0 0.00 0.00 0.00 91 1016.9
20260505151334 54 136 0.0 0.0 0.00 0.00 0.00 91 1017.0
20260505150832 54 114 0.0 0.0 0.00 0.00 0.00 91 1016.9
20260505150329 54 93 0.0 0.0 0.00 0.00 0.00 91 1016.9
20260505140253 54 131 0.0 0.0 0.00 0.00 0.00 92 1016.2
20260505130217 54 113 0.0 0.0 0.00 0.00 0.00 91 1016.0
20260505124707 54 108 0.0 0.0 0.00 0.00 0.00 91 1016.1
20260505124203 54 129 0.0 0.0 0.00 0.00 0.00 90 1015.7
20260505123659 54 169 1.0 2.0 0.00 0.00 0.00 90 1015.7
20260505123156 54 129 0.0 0.0 0.00 0.00 0.00 90 1015.7
20260505122653 54 131 0.0 0.0 0.00 0.00 0.00 90 1015.8
20260505122150 54 120 0.0 0.0 0.00 0.00 0.00 90 1015.8
20260505121647 54 142 0.0 0.0 0.00 0.00 0.00 90 1015.8
20260505121143 54 153 0.0 1.0 0.00 0.00 0.00 90 1015.8
20260505120639 54 103 0.0 1.0 0.00 0.00 0.00 90 1015.5
20260505120135 54 107 0.0 0.0 0.00 0.00 0.00 90 1015.9
20260505115629 54 152 1.0 1.0 0.00 0.00 0.00 89 1015.4
20260505115127 54 119 0.0 0.0 0.00 0.00 0.00 89 1015.6
20260505114624 54 127 0.0 0.0 0.00 0.00 0.00 89 1015.7
20260505114120 54 114 1.0 1.0 0.00 0.00 0.00 89 1015.7
20260505113617 54 120 0.0 0.0 0.00 0.00 0.00 89 1015.6
20260505113114 54 109 0.0 1.0 0.00 0.00 0.00 89 1015.7
20260505112610 54 123 0.0 0.0 0.00 0.00 0.00 88 1015.4
20260505112108 54 137 0.0 0.0 0.00 0.00 0.00 88 1015.6
20260505111602 54 144 0.0 1.0 0.00 0.00 0.00 88 1015.8
20260505111058 54 150 0.0 0.0 0.00 0.00 0.00 88 1015.7
20260505110555 54 112 0.0 0.0 0.00 0.00 0.00 88 1015.5
20260505102027 55 126 0.0 0.0 0.00 0.00 0.00 88 1015.3
20260505101526 55 105 0.0 0.0 0.00 0.00 0.00 88 1015.2
20260505101022 55 113 0.0 0.0 0.00 0.00 0.00 88 1015.1
20260505100519 55 119 0.0 0.0 0.00 0.00 0.00 88 1015.0
20260505100016 55 121 0.0 0.0 0.00 0.00 0.00 88 1015.2
20260505095512 55 138 0.0 1.0 0.00 0.00 0.00 88 1015.2
20260505095008 55 143 0.0 1.0 0.00 0.00 0.00 88 1015.1
20260505094505 55 125 0.0 0.0 0.00 0.00 0.00 88 1015.1
20260505094001 55 130 0.0 0.0 0.00 0.00 0.00 88 1015.1
20260505093457 55 124 0.0 0.0 0.00 0.00 0.00 88 1015.1
20260505092955 55 128 0.0 0.0 0.00 0.00 0.00 88 1015.1
20260505092452 55 117 0.0 0.0 0.00 0.00 0.00 88 1014.9
20260505091950 55 116 0.0 0.0 0.00 0.00 0.00 88 1015.2
20260505091447 55 116 0.0 0.0 0.00 0.00 0.00 87 1014.9
20260505090945 55 120 0.0 0.0 0.00 0.00 0.00 87 1014.9
20260505090443 55 133 0.0 0.0 0.00 0.00 0.00 86 1014.7
20260505085940 56 120 0.0 0.0 0.00 0.00 0.00 86 1015.0
20260505085438 56 123 0.0 0.0 0.00 0.00 0.00 86 1014.7
20260505084936 56 128 1.0 1.0 0.00 0.00 0.00 86 1014.6
20260505084434 56 147 0.0 0.0 0.00 0.00 0.00 85 1014.7
20260505083932 56 142 0.0 0.0 0.00 0.00 0.00 85 1014.8
20260505083429 56 141 0.0 0.0 0.00 0.00 0.00 85 1014.6
20260505082925 56 64 1.0 1.0 0.00 0.00 0.00 85 1014.8
20260505082421 56 114 0.0 0.0 0.00 0.00 0.00 85 1014.7
20260505081918 56 165 1.0 1.0 0.00 0.00 0.00 85 1014.7
20260505081415 56 124 2.0 2.0 0.00 0.00 0.00 84 1014.6
20260505080911 56 18 1.0 2.0 0.00 0.00 0.00 85 1014.5
20260505080407 56 102 1.0 1.0 0.00 0.00 0.00 85 1014.6
20260505075903 56 120 0.0 0.0 0.00 0.00 0.00 85 1014.5
20260505075400 56 147 0.0 0.0 0.00 0.00 0.00 86 1014.5
20260505074857 56 118 0.0 0.0 0.00 0.00 0.00 86 1014.4
20260505074354 56 121 0.0 0.0 0.00 0.00 0.00 85 1014.2
20260505073851 56 103 0.0 0.0 0.00 0.00 0.00 85 1014.4
20260505073349 56 115 0.0 0.0 0.00 0.00 0.00 85 1014.2
20260505072846 56 112 0.0 0.0 0.00 0.00 0.00 84 1014.2
20260505072342 57 105 1.0 1.0 0.00 0.00 0.00 84 1013.9
20260505071838 57 118 0.0 0.0 0.00 0.00 0.00 83 1013.9
20260505071335 57 115 0.0 0.0 0.00 0.00 0.00 83 1014.0
20260505070833 57 99 0.0 0.0 0.00 0.00 0.00 82 1013.8
20260505070329 57 122 1.0 1.0 0.00 0.00 0.00 82 1013.8
20260505065825 58 125 0.0 0.0 0.00 0.00 0.00 82 1013.8
20260505065321 58 135 0.0 0.0 0.00 0.00 0.00 82 1013.7
20260505064819 59 115 0.0 0.0 0.00 0.00 0.00 82 1013.3
20260505064316 59 71 3.0 3.0 0.00 0.00 0.00 82 1013.5
20260505063814 59 111 0.0 1.0 0.00 0.00 0.00 82 1013.5
20260505063310 59 108 0.0 0.0 0.00 0.00 0.00 82 1013.5
20260505062806 60 119 0.0 0.0 0.00 0.00 0.00 81 1013.3
20260505062304 60 124 0.0 0.0 0.00 0.00 0.00 81 1013.1
20260505061800 60 131 0.0 0.0 0.00 0.00 0.00 79 1013.2
20260505061259 61 180 1.0 1.0 0.00 0.00 0.00 79 1013.3
20260505060756 61 108 1.0 1.0 0.00 0.00 0.00 78 1013.1
20260505060253 61 111 0.0 1.0 0.00 0.00 0.00 78 1012.9
20260505055748 62 134 0.0 0.0 0.00 0.00 0.00 77 1013.1
20260505055244 62 141 0.0 1.0 0.00 0.00 0.00 77 1012.8
20260505054742 63 107 1.0 1.0 0.00 0.00 0.00 77 1012.8
20260505054239 63 123 0.0 0.0 0.00 0.00 0.00 77 1012.8
20260505053738 63 132 0.0 0.0 0.00 0.00 0.00 77 1012.9
20260505053234 64 146 0.0 0.0 0.00 0.00 0.00 76 1012.7
20260505052731 64 113 0.0 0.0 0.00 0.00 0.00 76 1012.7
20260505052228 64 116 0.0 0.0 0.00 0.00 0.00 77 1012.7
20260505051725 64 134 0.0 0.0 0.00 0.00 0.00 77 1012.6
20260505051223 64 124 0.0 0.0 0.00 0.00 0.00 76 1012.5
20260505050721 64 96 0.0 0.0 0.00 0.00 0.00 77 1012.5
20260505050219 65 121 0.0 0.0 0.00 0.00 0.00 76 1012.8
20260505041648 64 145 0.0 1.0 0.00 0.00 0.00 80 1011.9
20260505041146 64 125 0.0 0.0 0.00 0.00 0.00 81 1011.7
20260505040643 64 111 0.0 0.0 0.00 0.00 0.00 81 1011.5
20260505040140 64 114 0.0 0.0 0.00 0.00 0.00 81 1011.7
20260505035636 64 127 0.0 0.0 0.00 0.00 0.00 81 1011.6
20260505035132 65 127 0.0 0.0 0.00 0.00 0.00 80 1011.3
20260505034629 65 127 0.0 0.0 0.00 0.00 0.00 79 1011.1
20260505034126 65 127 0.0 0.0 0.00 0.00 0.00 79 1011.2
20260505033623 66 138 0.0 0.0 0.00 0.00 0.00 79 1011.4
20260505033121 66 112 0.0 0.0 0.00 0.00 0.00 78 1011.3
20260505032619 66 111 0.0 0.0 0.00 0.00 0.00 77 1011.2
20260505032115 66 131 0.0 0.0 0.00 0.00 0.00 77 1011.1
20260505031612 67 142 0.0 0.0 0.00 0.00 0.00 76 1011.1
20260505031108 67 112 0.0 0.0 0.00 0.00 0.00 76 1011.0
20260505030606 67 180 2.0 2.0 0.00 0.00 0.00 75 1011.1
20260505025557 68 119 0.0 0.0 0.00 0.00 0.00 74 1011.0
20260505025056 68 127 0.0 0.0 0.00 0.00 0.00 73 1010.8
20260505024553 68 125 0.0 0.0 0.00 0.00 0.00 73 1010.9
20260505024050 69 96 0.0 1.0 0.00 0.00 0.00 72 1010.8
20260505023547 69 119 0.0 0.0 0.00 0.00 0.00 71 1010.5
20260505023045 69 117 0.0 0.0 0.00 0.00 0.00 71 1010.8
20260505022543 69 108 0.0 1.0 0.00 0.00 0.00 71 1010.7
20260505022039 70 152 1.0 1.0 0.00 0.00 0.00 70 1010.8
20260505021536 70 125 0.0 1.0 0.00 0.00 0.00 71 1010.5
20260505021033 71 153 0.0 0.0 0.00 0.00 0.00 69 1011.0
20260505020532 71 123 2.0 2.0 0.00 0.00 0.00 68 1010.7
20260505020030 71 139 0.0 1.0 0.00 0.00 0.00 68 1010.9
20260505015527 71 202 1.0 1.0 0.00 0.00 0.00 68 1010.4
20260505015024 71 355 1.0 1.0 0.00 0.00 0.00 68 1010.7
20260505014520 71 84 1.0 1.0 0.00 0.00 0.00 67 1010.7
20260505014018 71 103 1.0 1.0 0.00 0.00 0.00 66 1010.5
20260505013515 71 147 0.0 1.0 0.00 0.00 0.00 66 1010.5
20260505013012 71 112 0.0 0.0 0.00 0.00 0.00 66 1011.2
20260505012510 72 67 1.0 2.0 0.00 0.00 0.00 65 1010.8
20260505012007 72 320 1.0 2.0 0.00 0.00 0.00 65 1011.2
20260505011502 72 137 0.0 1.0 0.00 0.00 0.00 65 1010.9
20260505011000 72 120 0.0 1.0 0.00 0.00 0.00 65 1011.0
20260505010455 72 131 0.0 0.0 0.00 0.00 0.00 64 1011.0
20260505005951 72 124 0.0 1.0 0.00 0.00 0.00 64 1010.8
20260505005448 72 142 0.0 1.0 0.00 0.00 0.00 64 1010.8
20260505004946 72 215 1.0 1.0 0.00 0.00 0.00 64 1010.9
20260505004442 73 40 1.0 1.0 0.00 0.00 0.00 62 1011.1
20260505003939 72 114 0.0 1.0 0.00 0.00 0.00 63 1011.1
20260505003437 73 108 2.0 2.0 0.00 0.00 0.00 62 1011.2
20260505002933 73 124 1.0 1.0 0.00 0.00 0.00 63 1011.2
20260505002429 73 152 0.0 0.0 0.00 0.00 0.00 62 1011.2
20260505001928 72 156 2.0 2.0 0.00 0.00 0.00 63 1011.4
20260505001425 72 114 0.0 1.0 0.00 0.00 0.00 62 1011.3
20260505000922 72 164 2.0 2.0 0.00 0.00 0.00 62 1011.3
20260505000420 72 131 0.0 0.0 0.00 0.00 0.00 62 1011.3
20260504235916 72 306 1.0 2.0 0.00 0.00 0.00 63 1011.3
20260504235414 72 113 0.0 1.0 0.00 0.00 0.00 63 1011.3
20260504234909 73 106 1.0 1.0 0.00 0.00 0.00 61 1011.2
20260504234407 72 153 0.0 1.0 0.00 0.00 0.00 62 1011.1
20260504233903 73 304 1.0 2.0 0.00 0.00 0.00 61 1011.2
20260504233359 73 288 4.0 5.0 0.00 0.00 0.00 58 1011.4
20260504232856 73 188 0.0 1.0 0.00 0.00 0.00 60 1011.5
20260504232353 73 155 1.0 1.0 0.00 0.00 0.00 60 1011.5
20260504231850 73 148 0.0 1.0 0.00 0.00 0.00 62 1011.5
20260504231347 73 272 2.0 3.0 0.00 0.00 0.00 60 1011.6
20260504230843 73 197 0.0 1.0 0.00 0.00 0.00 62 1011.8
20260504230341 73 181 1.0 1.0 0.00 0.00 0.00 60 1011.7
20260504225839 73 124 0.0 0.0 0.00 0.00 0.00 62 1011.6
20260504225335 73 207 1.0 1.0 0.00 0.00 0.00 60 1011.8
20260504224833 72 166 0.0 1.0 0.00 0.00 0.00 60 1011.9
20260504224330 73 165 1.0 1.0 0.00 0.00 0.00 61 1011.9